| time (UTC) | temp F | wind direction | speed MPH | gust MPH | rain 1hr in | rain 24hr in | rain mn in | humidity % | barometer mb |
| 20260904211540 | 88 | 65 | 0.0 | 6.0 | 0.00 | 0.00 | 0.00 | 45 | |
| 20260904210412 | 88 | 117 | 0.0 | 3.0 | 0.00 | 0.00 | 0.00 | 45 | |
| 20260904205909 | 88 | 128 | 0.0 | 3.0 | 0.00 | 0.00 | 0.00 | 45 | |
| 20260904205414 | 88 | 108 | 0.0 | 3.0 | 0.00 | 0.00 | 0.00 | 46 | |
| 20260904204858 | 88 | 81 | 0.0 | 3.0 | 0.00 | 0.00 | 0.00 | 47 | |
| 20260904203755 | 87 | 58 | 0.0 | 3.0 | 0.00 | 0.00 | 0.00 | 48 | |
| 20260904203241 | 86 | 170 | 0.0 | 3.0 | 0.00 | 0.00 | 0.00 | 48 | |
| 20260904202749 | 86 | 170 | 0.0 | 4.0 | 0.00 | 0.00 | 0.00 | 48 | |
| 20260904202230 | 85 | 303 | 0.0 | 8.0 | 0.00 | 0.00 | 0.00 | 49 | |
| 20260904201732 | 85 | 95 | 1.0 | 8.0 | 0.00 | 0.00 | 0.00 | 49 | |
| 20260904201241 | 85 | 312 | 1.0 | 8.0 | 0.00 | 0.00 | 0.00 | 50 | |
| 20260904200727 | 85 | 318 | 1.0 | 8.0 | 0.00 | 0.00 | 0.00 | 51 | |
| 20260904200223 | 85 | 254 | 1.0 | 6.0 | 0.00 | 0.00 | 0.00 | 51 | |
| 20260904195714 | 84 | 277 | 2.0 | 7.0 | 0.00 | 0.00 | 0.00 | 52 | |
| 20260904195212 | 84 | 119 | 2.0 | 7.0 | 0.00 | 0.00 | 0.00 | 52 | |
| 20260904194712 | 84 | 312 | 1.0 | 9.0 | 0.00 | 0.00 | 0.00 | 51 | |
| 20260904194213 | 84 | 329 | 1.0 | 9.0 | 0.00 | 0.00 | 0.00 | 51 | |
| 20260904193702 | 85 | 311 | 4.0 | 9.0 | 0.00 | 0.00 | 0.00 | 50 | |
| 20260904191855 | 85 | 298 | 2.0 | 6.0 | 0.00 | 0.00 | 0.00 | 50 | |
| 20260904191346 | 85 | 299 | 2.0 | 5.0 | 0.00 | 0.00 | 0.00 | 50 | |
| 20260904190853 | 86 | 302 | 1.0 | 5.0 | 0.00 | 0.00 | 0.00 | 48 | |
| 20260904190355 | 87 | 311 | 0.0 | 4.0 | 0.00 | 0.00 | 0.00 | 49 | |
| 20260904185902 | 86 | 311 | 1.0 | 4.0 | 0.00 | 0.00 | 0.00 | 48 | |
| 20260904185351 | 87 | 348 | 0.0 | 2.0 | 0.00 | 0.00 | 0.00 | 47 | |
| 20260904184239 | 86 | 120 | 0.0 | 5.0 | 0.00 | 0.00 | 0.00 | 48 | |
| 20260904183732 | 86 | 143 | 0.0 | 5.0 | 0.00 | 0.00 | 0.00 | 47 | |
| 20260904182611 | 85 | 298 | 0.0 | 5.0 | 0.00 | 0.00 | 0.00 | 48 | |
| 20260904182056 | 85 | 276 | 0.0 | 3.0 | 0.00 | 0.00 | 0.00 | 49 | |
| 20260904181600 | 84 | 80 | 0.0 | 1.0 | 0.00 | 0.00 | 0.00 | 49 | |
| 20260904181059 | 84 | 13 | 0.0 | 0.0 | 0.00 | 0.00 | 0.00 | 50 | |
| 20260904180548 | 83 | 144 | 0.0 | 4.0 | 0.00 | 0.00 | 0.00 | 49 | |
| 20260904180036 | 83 | 304 | 0.0 | 2.0 | 0.00 | 0.00 | 0.00 | 51 | |
| 20260904175537 | 83 | 304 | 0.0 | 1.0 | 0.00 | 0.00 | 0.00 | 51 | |
| 20260904175029 | 82 | 304 | 0.0 | 3.0 | 0.00 | 0.00 | 0.00 | 52 | |
| 20260904174533 | 81 | 304 | 0.0 | 2.0 | 0.00 | 0.00 | 0.00 | 54 | |
| 20260904172734 | 79 | 304 | 0.0 | 5.0 | 0.00 | 0.00 | 0.00 | 57 | |
| 20260904172216 | 79 | 287 | 1.0 | 4.0 | 0.00 | 0.00 | 0.00 | 57 | |
| 20260904171706 | 78 | 287 | 1.0 | 4.0 | 0.00 | 0.00 | 0.00 | 59 | |
| 20260904171211 | 77 | 287 | 0.0 | 3.0 | 0.00 | 0.00 | 0.00 | 59 | |
| 20260904170659 | 77 | 287 | 1.0 | 4.0 | 0.00 | 0.00 | 0.00 | 59 | |
| 20260904170205 | 76 | 287 | 0.0 | 4.0 | 0.00 | 0.00 | 0.00 | 62 | |
| 20260904165656 | 75 | 287 | 1.0 | 4.0 | 0.00 | 0.00 | 0.00 | 63 | |
| 20260904165157 | 75 | 287 | 1.0 | 4.0 | 0.00 | 0.00 | 0.00 | 65 | |
| 20260904164640 | 73 | 287 | 0.0 | 3.0 | 0.00 | 0.00 | 0.00 | 69 | |
| 20260904164147 | 72 | 287 | 0.0 | 1.0 | 0.00 | 0.00 | 0.00 | 70 | |
| 20260904163629 | 71 | 287 | 0.0 | 0.0 | 0.00 | 0.00 | 0.00 | 74 | |
| 20260904162457 | 68 | 287 | 0.0 | 1.0 | 0.00 | 0.00 | 0.00 | 81 | |
| 20260904162005 | 67 | 287 | 0.0 | 1.0 | 0.00 | 0.00 | 0.00 | 86 | |
| 20260904161449 | 66 | 287 | 0.0 | 0.0 | 0.00 | 0.00 | 0.00 | 90 | |
| 20260904160930 | 65 | 287 | 0.0 | 1.0 | 0.00 | 0.00 | 0.00 | 92 | |
| 20260904160432 | 64 | 287 | 0.0 | 0.0 | 0.00 | 0.00 | 0.00 | 93 | |
| 20260904155924 | 63 | 287 | 0.0 | 0.0 | 0.00 | 0.00 | 0.00 | 94 | |
| 20260904155415 | 62 | 287 | 0.0 | 0.0 | 0.00 | 0.00 | 0.00 | 93 | |
| 20260904154904 | 61 | 287 | 0.0 | 0.0 | 0.00 | 0.00 | 0.00 | 93 | |
| 20260904154408 | 60 | 287 | 0.0 | 0.0 | 0.00 | 0.00 | 0.00 | 93 | |
| 20260904153859 | 60 | 287 | 0.0 | 0.0 | 0.00 | 0.00 | 0.00 | 93 | |
| 20260904153339 | 59 | 287 | 0.0 | 0.0 | 0.00 | 0.00 | 0.00 | 92 | |
| 20260904152825 | 59 | 287 | 0.0 | 0.0 | 0.00 | 0.00 | 0.00 | 92 | |
| 20260904152320 | 58 | 287 | 0.0 | 0.0 | 0.00 | 0.00 | 0.00 | 92 | |
| 20260904151821 | 58 | 287 | 0.0 | 0.0 | 0.00 | 0.00 | 0.00 | 93 | |
| 20260904151331 | 57 | 287 | 0.0 | 0.0 | 0.00 | 0.00 | 0.00 | 92 | |
| 20260904150821 | 57 | 287 | 0.0 | 0.0 | 0.00 | 0.00 | 0.00 | 92 | |
| 20260904150310 | 56 | 287 | 0.0 | 0.0 | 0.00 | 0.00 | 0.00 | 92 | |
| 20260904145814 | 56 | 287 | 0.0 | 0.0 | 0.00 | 0.00 | 0.00 | 92 | |
| 20260904145321 | 56 | 287 | 0.0 | 0.0 | 0.00 | 0.00 | 0.00 | 91 | |
| 20260904144820 | 56 | 287 | 0.0 | 0.0 | 0.00 | 0.00 | 0.00 | 91 | |
| 20260904144322 | 55 | 288 | 0.0 | 0.0 | 0.00 | 0.00 | 0.00 | 91 | |
| 20260904143808 | 55 | 288 | 0.0 | 0.0 | 0.00 | 0.00 | 0.00 | 91 | |
| 20260904143307 | 55 | 288 | 0.0 | 0.0 | 0.00 | 0.00 | 0.00 | 90 | |
| 20260904142801 | 55 | 288 | 0.0 | 0.0 | 0.00 | 0.00 | 0.00 | 90 | |
| 20260904142243 | 55 | 288 | 0.0 | 0.0 | 0.00 | 0.00 | 0.00 | 90 | |
| 20260904141727 | 55 | 288 | 0.0 | 0.0 | 0.00 | 0.00 | 0.00 | 89 | |
| 20260904141212 | 55 | 288 | 0.0 | 0.0 | 0.00 | 0.00 | 0.00 | 89 | |
| 20260904140717 | 55 | 288 | 0.0 | 0.0 | 0.00 | 0.00 | 0.00 | 89 | |
| 20260904140208 | 55 | 288 | 0.0 | 0.0 | 0.00 | 0.00 | 0.00 | 89 | |
| 20260904135714 | 55 | 288 | 0.0 | 0.0 | 0.00 | 0.00 | 0.00 | 89 | |
| 20260904135216 | 55 | 288 | 0.0 | 0.0 | 0.00 | 0.00 | 0.00 | 89 | |
| 20260904134046 | 55 | 288 | 0.0 | 0.0 | 0.00 | 0.00 | 0.00 | 89 | |
| 20260904133541 | 55 | 288 | 0.0 | 0.0 | 0.00 | 0.00 | 0.00 | 89 | |
| 20260904133051 | 55 | 288 | 0.0 | 0.0 | 0.00 | 0.00 | 0.00 | 89 | |
| 20260904131940 | 55 | 288 | 0.0 | 0.0 | 0.00 | 0.00 | 0.00 | 89 | |
| 20260904131422 | 55 | 288 | 0.0 | 0.0 | 0.00 | 0.00 | 0.00 | 89 | |
| 20260904130243 | 56 | 288 | 0.0 | 0.0 | 0.00 | 0.00 | 0.00 | 88 | |
| 20260904125733 | 56 | 288 | 0.0 | 0.0 | 0.00 | 0.00 | 0.00 | 88 | |
| 20260904123956 | 56 | 288 | 0.0 | 0.0 | 0.00 | 0.00 | 0.00 | 88 | |
| 20260904123442 | 56 | 288 | 0.0 | 0.0 | 0.00 | 0.00 | 0.00 | 88 | |
| 20260904122928 | 56 | 288 | 0.0 | 0.0 | 0.00 | 0.00 | 0.00 | 88 | |
| 20260904122428 | 56 | 288 | 0.0 | 0.0 | 0.00 | 0.00 | 0.00 | 88 | |
| 20260904121925 | 56 | 288 | 0.0 | 0.0 | 0.00 | 0.00 | 0.00 | 88 | |
| 20260904121422 | 56 | 288 | 0.0 | 0.0 | 0.00 | 0.00 | 0.00 | 88 | |
| 20260904120920 | 56 | 288 | 0.0 | 0.0 | 0.00 | 0.00 | 0.00 | 88 | |
| 20260904120403 | 56 | 288 | 0.0 | 0.0 | 0.00 | 0.00 | 0.00 | 88 | |
| 20260904115852 | 56 | 288 | 0.0 | 0.0 | 0.00 | 0.00 | 0.00 | 88 | |
| 20260904115356 | 57 | 288 | 0.0 | 0.0 | 0.00 | 0.00 | 0.00 | 88 | |
| 20260904114846 | 57 | 288 | 0.0 | 0.0 | 0.00 | 0.00 | 0.00 | 87 | |
| 20260904114346 | 57 | 288 | 0.0 | 0.0 | 0.00 | 0.00 | 0.00 | 87 | |
| 20260904113839 | 57 | 288 | 0.0 | 0.0 | 0.00 | 0.00 | 0.00 | 87 | |
| 20260904113326 | 57 | 288 | 0.0 | 0.0 | 0.00 | 0.00 | 0.00 | 87 | |
| 20260904112827 | 57 | 288 | 0.0 | 0.0 | 0.00 | 0.00 | 0.00 | 87 | |
| 20260904111648 | 58 | 288 | 0.0 | 0.0 | 0.00 | 0.00 | 0.00 | 87 | |
| 20260904111133 | 58 | 288 | 0.0 | 0.0 | 0.00 | 0.00 | 0.00 | 88 | |
| 20260904110617 | 58 | 288 | 0.0 | 0.0 | 0.00 | 0.00 | 0.00 | 88 | |
| 20260904110124 | 58 | 288 | 0.0 | 0.0 | 0.00 | 0.00 | 0.00 | 88 | |
| 20260904105618 | 58 | 288 | 0.0 | 0.0 | 0.00 | 0.00 | 0.00 | 88 | |
| 20260904105124 | 58 | 288 | 0.0 | 0.0 | 0.00 | 0.00 | 0.00 | 88 | |
| 20260904104629 | 58 | 288 | 0.0 | 0.0 | 0.00 | 0.00 | 0.00 | 88 | |
| 20260904104137 | 58 | 288 | 0.0 | 0.0 | 0.00 | 0.00 | 0.00 | 88 | |
| 20260904103620 | 58 | 288 | 0.0 | 0.0 | 0.00 | 0.00 | 0.00 | 88 | |
| 20260904103118 | 58 | 288 | 0.0 | 0.0 | 0.00 | 0.00 | 0.00 | 88 | |
| 20260904102626 | 58 | 288 | 0.0 | 0.0 | 0.00 | 0.00 | 0.00 | 88 | |
| 20260904101505 | 58 | 288 | 0.0 | 0.0 | 0.00 | 0.00 | 0.00 | 87 | |
| 20260904100951 | 58 | 288 | 0.0 | 0.0 | 0.00 | 0.00 | 0.00 | 87 | |
| 20260904100440 | 58 | 288 | 0.0 | 0.0 | 0.00 | 0.00 | 0.00 | 87 | |
| 20260904095930 | 58 | 288 | 0.0 | 0.0 | 0.00 | 0.00 | 0.00 | 87 | |
| 20260904095433 | 58 | 288 | 0.0 | 0.0 | 0.00 | 0.00 | 0.00 | 87 | |
| 20260904094938 | 58 | 288 | 0.0 | 0.0 | 0.00 | 0.00 | 0.00 | 87 | |
| 20260904093813 | 59 | 288 | 0.0 | 0.0 | 0.00 | 0.00 | 0.00 | 87 | |
| 20260904092634 | 59 | 288 | 0.0 | 0.0 | 0.00 | 0.00 | 0.00 | 86 | |
| 20260904092139 | 59 | 288 | 0.0 | 0.0 | 0.00 | 0.00 | 0.00 | 86 | |
| 20260904091632 | 59 | 288 | 0.0 | 0.0 | 0.00 | 0.00 | 0.00 | 86 | |
| 20260904091142 | 59 | 288 | 0.0 | 0.0 | 0.00 | 0.00 | 0.00 | 86 | |
| 20260904090633 | 59 | 288 | 0.0 | 0.0 | 0.00 | 0.00 | 0.00 | 86 | |
| 20260904090122 | 59 | 288 | 0.0 | 0.0 | 0.00 | 0.00 | 0.00 | 86 | |
| 20260904084936 | 59 | 288 | 0.0 | 0.0 | 0.00 | 0.00 | 0.00 | 86 | |
| 20260904084444 | 59 | 288 | 0.0 | 0.0 | 0.00 | 0.00 | 0.00 | 85 | |
| 20260904083945 | 59 | 288 | 0.0 | 0.0 | 0.00 | 0.00 | 0.00 | 85 | |
| 20260904082803 | 59 | 288 | 0.0 | 0.0 | 0.00 | 0.00 | 0.00 | 85 | |
| 20260904082306 | 59 | 288 | 0.0 | 0.0 | 0.00 | 0.00 | 0.00 | 85 | |
| 20260904081804 | 59 | 288 | 0.0 | 0.0 | 0.00 | 0.00 | 0.00 | 85 | |
| 20260904081245 | 60 | 288 | 0.0 | 0.0 | 0.00 | 0.00 | 0.00 | 85 | |
| 20260904080749 | 60 | 288 | 0.0 | 0.0 | 0.00 | 0.00 | 0.00 | 85 | |
| 20260904080245 | 60 | 288 | 0.0 | 1.0 | 0.00 | 0.00 | 0.00 | 84 | |
| 20260904075744 | 60 | 288 | 0.0 | 0.0 | 0.00 | 0.00 | 0.00 | 83 | |
| 20260904074553 | 60 | 288 | 0.0 | 0.0 | 0.00 | 0.00 | 0.00 | 83 | |
| 20260904074053 | 60 | 288 | 0.0 | 0.0 | 0.00 | 0.00 | 0.00 | 83 | |
| 20260904073548 | 60 | 288 | 0.0 | 0.0 | 0.00 | 0.00 | 0.00 | 83 | |
| 20260904073044 | 60 | 288 | 0.0 | 0.0 | 0.00 | 0.00 | 0.00 | 83 | |
| 20260904072535 | 61 | 288 | 0.0 | 0.0 | 0.00 | 0.00 | 0.00 | 83 | |
| 20260904072023 | 61 | 288 | 0.0 | 0.0 | 0.00 | 0.00 | 0.00 | 82 | |
| 20260904071507 | 61 | 288 | 0.0 | 0.0 | 0.00 | 0.00 | 0.00 | 82 | |
| 20260904070959 | 61 | 288 | 0.0 | 0.0 | 0.00 | 0.00 | 0.00 | 82 | |
| 20260904070500 | 61 | 288 | 0.0 | 0.0 | 0.00 | 0.00 | 0.00 | 82 | |
| 20260904065953 | 61 | 288 | 0.0 | 0.0 | 0.00 | 0.00 | 0.00 | 81 | |
| 20260904065446 | 61 | 288 | 0.0 | 0.0 | 0.00 | 0.00 | 0.00 | 81 | |
| 20260904064955 | 62 | 288 | 0.0 | 0.0 | 0.00 | 0.00 | 0.00 | 81 | |
| 20260904064448 | 62 | 288 | 0.0 | 0.0 | 0.00 | 0.00 | 0.00 | 81 | |
| 20260904063941 | 62 | 288 | 0.0 | 0.0 | 0.00 | 0.00 | 0.00 | 80 | |
| 20260904063436 | 62 | 288 | 0.0 | 0.0 | 0.00 | 0.00 | 0.00 | 81 | |
| 20260904062924 | 62 | 288 | 0.0 | 0.0 | 0.00 | 0.00 | 0.00 | 81 | |
| 20260904062429 | 62 | 288 | 0.0 | 0.0 | 0.00 | 0.00 | 0.00 | 81 | |
| 20260904061928 | 63 | 288 | 0.0 | 0.0 | 0.00 | 0.00 | 0.00 | 80 | |
| 20260904061418 | 63 | 288 | 0.0 | 0.0 | 0.00 | 0.00 | 0.00 | 79 | |
| 20260904060922 | 63 | 288 | 0.0 | 0.0 | 0.00 | 0.00 | 0.00 | 80 | |
| 20260904060417 | 63 | 288 | 0.0 | 0.0 | 0.00 | 0.00 | 0.00 | 80 | |
| 20260904055919 | 63 | 288 | 0.0 | 0.0 | 0.00 | 0.00 | 0.00 | 79 | |
| 20260904055421 | 63 | 288 | 0.0 | 0.0 | 0.00 | 0.00 | 0.00 | 79 | |
| 20260904054929 | 63 | 288 | 0.0 | 0.0 | 0.00 | 0.00 | 0.00 | 79 | |
| 20260904054413 | 64 | 288 | 0.0 | 0.0 | 0.00 | 0.00 | 0.00 | 79 | |
| 20260904053915 | 64 | 288 | 0.0 | 0.0 | 0.00 | 0.00 | 0.00 | 78 | |
| 20260904053420 | 64 | 288 | 0.0 | 0.0 | 0.00 | 0.00 | 0.00 | 78 | |
| 20260904051031 | 65 | 288 | 0.0 | 0.0 | 0.00 | 0.00 | 0.00 | 78 | |
| 20260904044610 | 66 | 288 | 0.0 | 0.0 | 0.00 | 0.00 | 0.00 | 77 | |
| 20260904044051 | 66 | 288 | 0.0 | 0.0 | 0.00 | 0.00 | 0.00 | 77 | |
| 20260904043554 | 66 | 288 | 0.0 | 0.0 | 0.00 | 0.00 | 0.00 | 77 | |
| 20260904042440 | 66 | 288 | 0.0 | 0.0 | 0.00 | 0.00 | 0.00 | 76 | |
| 20260904041939 | 67 | 288 | 0.0 | 0.0 | 0.00 | 0.00 | 0.00 | 75 | |
| 20260904040808 | 67 | 288 | 0.0 | 0.0 | 0.00 | 0.00 | 0.00 | 74 | |
| 20260904040309 | 67 | 288 | 0.0 | 0.0 | 0.00 | 0.00 | 0.00 | 74 | |
| 20260904035758 | 68 | 288 | 0.0 | 0.0 | 0.00 | 0.00 | 0.00 | 74 | |
| 20260904035240 | 68 | 288 | 0.0 | 0.0 | 0.00 | 0.00 | 0.00 | 73 | |
| 20260904034731 | 68 | 288 | 0.0 | 0.0 | 0.00 | 0.00 | 0.00 | 73 | |
| 20260904034228 | 68 | 288 | 0.0 | 0.0 | 0.00 | 0.00 | 0.00 | 72 | |
| 20260904033718 | 68 | 288 | 0.0 | 0.0 | 0.00 | 0.00 | 0.00 | 72 | |
| 20260904032546 | 69 | 288 | 0.0 | 0.0 | 0.00 | 0.00 | 0.00 | 70 | |
| 20260904031358 | 70 | 288 | 0.0 | 0.0 | 0.00 | 0.00 | 0.00 | 70 | |
| 20260904030900 | 70 | 288 | 0.0 | 0.0 | 0.00 | 0.00 | 0.00 | 69 | |
| 20260904030351 | 70 | 288 | 0.0 | 0.0 | 0.00 | 0.00 | 0.00 | 69 | |
| 20260904025840 | 71 | 288 | 0.0 | 0.0 | 0.00 | 0.00 | 0.00 | 68 | |
| 20260904025328 | 71 | 288 | 0.0 | 0.0 | 0.00 | 0.00 | 0.00 | 68 | |
| 20260904024208 | 71 | 288 | 0.0 | 0.0 | 0.00 | 0.00 | 0.00 | 68 | |
| 20260904023108 | 72 | 288 | 0.0 | 0.0 | 0.00 | 0.00 | 0.00 | 68 | |
| 20260904022605 | 72 | 288 | 0.0 | 0.0 | 0.00 | 0.00 | 0.00 | 68 | |
| 20260904022057 | 72 | 288 | 1.0 | 3.0 | 0.00 | 0.00 | 0.00 | 68 | |
| 20260904021555 | 73 | 288 | 1.0 | 3.0 | 0.00 | 0.00 | 0.00 | 67 | |
| 20260904021056 | 73 | 288 | 1.0 | 3.0 | 0.00 | 0.00 | 0.00 | 66 | |
| 20260904020551 | 73 | 288 | 1.0 | 3.0 | 0.00 | 0.00 | 0.00 | 65 | |
| 20260904020039 | 74 | 288 | 1.0 | 3.0 | 0.00 | 0.00 | 0.00 | 64 | |
| 20260904015547 | 74 | 288 | 1.0 | 3.0 | 0.00 | 0.00 | 0.00 | 63 | |
| 20260904015028 | 75 | 288 | 0.0 | 4.0 | 0.00 | 0.00 | 0.00 | 62 | |
| 20260904014531 | 75 | 288 | 1.0 | 4.0 | 0.00 | 0.00 | 0.00 | 61 | |
| 20260904014025 | 76 | 288 | 1.0 | 4.0 | 0.00 | 0.00 | 0.00 | 60 | |
| 20260904013508 | 76 | 288 | 2.0 | 4.0 | 0.00 | 0.00 | 0.00 | 59 | |
| 20260904013010 | 77 | 288 | 2.0 | 4.0 | 0.00 | 0.00 | 0.00 | 58 | |
| 20260904011823 | 78 | 292 | 1.0 | 3.0 | 0.00 | 0.00 | 0.00 | 56 | |
| 20260904011330 | 79 | 292 | 0.0 | 3.0 | 0.00 | 0.00 | 0.00 | 55 | |
| 20260904010834 | 80 | 290 | 0.0 | 0.0 | 0.00 | 0.00 | 0.00 | 54 | |
| 20260904010321 | 80 | 290 | 0.0 | 1.0 | 0.00 | 0.00 | 0.00 | 53 | |
| 20260904005805 | 80 | 290 | 0.0 | 0.0 | 0.00 | 0.00 | 0.00 | 53 | |
| 20260904005308 | 80 | 290 | 0.0 | 1.0 | 0.00 | 0.00 | 0.00 | 52 | |
| 20260904004804 | 81 | 297 | 0.0 | 0.0 | 0.00 | 0.00 | 0.00 | 52 | |
| 20260904004254 | 81 | 297 | 0.0 | 0.0 | 0.00 | 0.00 | 0.00 | 52 | |
| 20260904003736 | 81 | 297 | 0.0 | 7.0 | 0.00 | 0.00 | 0.00 | 52 | |
| 20260904003230 | 82 | 297 | 2.0 | 7.0 | 0.00 | 0.00 | 0.00 | 51 | |
| 20260904002733 | 82 | 298 | 2.0 | 7.0 | 0.00 | 0.00 | 0.00 | 51 | |
| 20260904002234 | 82 | 298 | 1.0 | 5.0 | 0.00 | 0.00 | 0.00 | 50 | |
| 20260904001742 | 83 | 298 | 1.0 | 5.0 | 0.00 | 0.00 | 0.00 | 49 | |
| 20260904001236 | 83 | 297 | 0.0 | 3.0 | 0.00 | 0.00 | 0.00 | 49 | |
| 20260904000727 | 83 | 297 | 0.0 | 2.0 | 0.00 | 0.00 | 0.00 | 49 | |
| 20260904000221 | 84 | 298 | 0.0 | 1.0 | 0.00 | 0.00 | 0.00 | 48 | |
| 20260903235725 | 84 | 299 | 1.0 | 0.0 | 0.00 | 0.00 | 0.00 | 48 | |
| 20260903235224 | 84 | 300 | 2.0 | 6.0 | 0.00 | 0.00 | 0.00 | 47 | |
| 20260903234708 | 85 | 289 | 1.0 | 4.0 | 0.00 | 0.00 | 0.00 | 46 | |
| 20260903234210 | 85 | 300 | 1.0 | 5.0 | 0.00 | 0.00 | 0.00 | 47 | |
| 20260903231135 | 86 | 344 | 0.0 | 5.0 | 0.00 | 0.00 | 0.00 | 45 | |
| 20260903230627 | 86 | 337 | 0.0 | 3.0 | 0.00 | 0.00 | 0.00 | 44 | |
| 20260903225502 | 86 | 67 | 0.0 | 4.0 | 0.00 | 0.00 | 0.00 | 44 | |
| 20260903224958 | 86 | 90 | 0.0 | 4.0 | 0.00 | 0.00 | 0.00 | 43 | |
| 20260903224455 | 86 | 130 | 0.0 | 4.0 | 0.00 | 0.00 | 0.00 | 43 | |
| 20260903224004 | 86 | 101 | 0.0 | 3.0 | 0.00 | 0.00 | 0.00 | 43 | |
| 20260903223501 | 87 | 355 | 0.0 | 3.0 | 0.00 | 0.00 | 0.00 | 42 | |
| 20260903222948 | 87 | 119 | 0.0 | 2.0 | 0.00 | 0.00 | 0.00 | 42 | |
| 20260903222450 | 87 | 96 | 0.0 | 2.0 | 0.00 | 0.00 | 0.00 | 42 | |
| 20260903221951 | 87 | 161 | 0.0 | 4.0 | 0.00 | 0.00 | 0.00 | 42 | |
| 20260903221453 | 87 | 146 | 0.0 | 4.0 | 0.00 | 0.00 | 0.00 | 42 | |
| 20260903220944 | 87 | 94 | 0.0 | 2.0 | 0.00 | 0.00 | 0.00 | 42 | |
| 20260903220447 | 87 | 115 | 0.0 | 2.0 | 0.00 | 0.00 | 0.00 | 42 | |
| 20260903215321 | 86 | 173 | 0.0 | 4.0 | 0.00 | 0.00 | 0.00 | 43 | |
| 20260903214803 | 87 | 148 | 0.0 | 4.0 | 0.00 | 0.00 | 0.00 | 42 | |
| 20260903214252 | 87 | 153 | 0.0 | 4.0 | 0.00 | 0.00 | 0.00 | 43 | |
| 20260903213745 | 87 | 155 | 0.0 | 4.0 | 0.00 | 0.00 | 0.00 | 42 | |
| 20260903213234 | 87 | 121 | 0.0 | 4.0 | 0.00 | 0.00 | 0.00 | 42 | |
| 20260903212713 | 87 | 276 | 0.0 | 4.0 | 0.00 | 0.00 | 0.00 | 43 |